| time (UTC) | temp C | wind direction | speed KPH | gust KPH | rain 1hr cm | rain 24hr cm | rain mn cm | humidity % | barometer mb |
| 20260502123030 | 8 | 36 | 0.0 | 0.0 | 0.00 | 2.24 | 0.00 | 97 | 1020.4 |
| 20260502121530 | 8 | 36 | 0.0 | 0.0 | 0.00 | 2.24 | 0.00 | 97 | 1020.0 |
| 20260502114525 | 8 | 36 | 0.0 | 0.0 | 0.00 | 2.64 | 0.00 | 96 | 1019.5 |
| 20260502113026 | 8 | 36 | 0.0 | 0.0 | 0.00 | 2.64 | 0.00 | 96 | 1019.5 |
| 20260502111519 | 9 | 36 | 0.0 | 0.0 | 0.00 | 2.64 | 0.00 | 96 | 1019.3 |
| 20260502110019 | 9 | 36 | 0.0 | 0.0 | 0.00 | 3.17 | 0.00 | 96 | 1019.2 |
| 20260502104522 | 9 | 36 | 0.0 | 0.0 | 0.00 | 3.17 | 0.00 | 96 | 1019.2 |
| 20260502103015 | 9 | 36 | 0.0 | 0.0 | 0.00 | 3.17 | 0.00 | 96 | 1018.8 |
| 20260502101529 | 9 | 36 | 0.0 | 0.0 | 0.00 | 3.17 | 0.00 | 96 | 1018.4 |
| 20260502091502 | 10 | 41 | 0.0 | 0.0 | 0.00 | 3.45 | 0.00 | 96 | 1017.6 |
| 20260502090200 | 10 | 23 | 0.0 | 0.0 | 0.00 | 3.45 | 0.00 | 96 | 1017.5 |
| 20260502080107 | 10 | 349 | 0.0 | 0.0 | 0.00 | 3.99 | 0.00 | 97 | 1017.2 |
| 20260502070100 | 10 | 46 | 0.0 | 0.0 | 0.00 | 4.01 | 0.00 | 97 | 1016.9 |
| 20260502064554 | 10 | 46 | 0.0 | 0.0 | 0.00 | 4.01 | 0.00 | 97 | 1017.0 |
| 20260502063057 | 10 | 32 | 0.0 | 0.0 | 0.00 | 4.01 | 0.00 | 97 | 1017.2 |
| 20260502061551 | 10 | 32 | 0.0 | 0.0 | 0.00 | 4.01 | 0.00 | 97 | 1017.4 |
| 20260502060050 | 10 | 32 | 0.0 | 0.0 | 0.00 | 4.01 | 0.00 | 97 | 1017.3 |
| 20260502054552 | 10 | 32 | 0.0 | 0.0 | 0.00 | 4.01 | 0.00 | 97 | 1017.4 |
| 20260502053046 | 10 | 32 | 0.0 | 0.0 | 0.00 | 4.01 | 0.00 | 97 | 1017.3 |
| 20260502051602 | 10 | 32 | 0.0 | 0.0 | 0.00 | 4.01 | 0.00 | 97 | 1017.0 |
| 20260502050042 | 11 | 31 | 0.0 | 0.0 | 0.00 | 4.01 | 4.01 | 97 | 1016.9 |
| 20260502044545 | 11 | 32 | 0.0 | 0.0 | 0.00 | 4.01 | 4.01 | 97 | 1016.9 |
| 20260502043040 | 11 | 32 | 0.0 | 0.0 | 0.00 | 4.01 | 4.01 | 98 | 1017.1 |
| 20260502041540 | 11 | 32 | 0.0 | 0.0 | 0.00 | 4.01 | 4.01 | 98 | 1017.0 |
| 20260502040050 | 11 | 27 | 0.0 | 0.0 | 0.00 | 4.01 | 4.01 | 98 | 1016.8 |
| 20260502034538 | 11 | 39 | 0.0 | 0.0 | 0.00 | 4.01 | 4.01 | 98 | 1016.8 |
| 20260502033035 | 11 | 34 | 0.0 | 1.6 | 0.00 | 4.01 | 4.01 | 98 | 1017.0 |
| 20260502031534 | 11 | 344 | 0.0 | 0.0 | 0.00 | 4.01 | 4.01 | 98 | 1016.7 |
| 20260502030033 | 11 | 308 | 0.0 | 1.6 | 0.00 | 4.01 | 4.01 | 98 | 1016.4 |
| 20260502024535 | 11 | 40 | 0.0 | 0.0 | 0.00 | 4.01 | 4.01 | 98 | 1016.2 |
| 20260502023027 | 11 | 4 | 0.0 | 0.0 | 0.00 | 4.01 | 4.01 | 98 | 1016.0 |
| 20260502021526 | 11 | 37 | 0.0 | 0.0 | 0.00 | 4.01 | 4.01 | 98 | 1015.7 |
| 20260502020024 | 11 | 16 | 0.0 | 1.6 | 0.00 | 4.01 | 4.01 | 98 | 1015.5 |
| 20260502014522 | 11 | 38 | 0.0 | 0.0 | 0.00 | 4.01 | 4.01 | 98 | 1015.3 |
| 20260502013019 | 11 | 40 | 0.0 | 0.0 | 0.00 | 4.01 | 4.01 | 98 | 1015.1 |
| 20260502011523 | 11 | 49 | 0.0 | 0.0 | 0.03 | 4.01 | 4.01 | 98 | 1014.8 |
| 20260502010016 | 11 | 12 | 0.0 | 3.2 | 0.03 | 4.01 | 4.01 | 98 | 1014.6 |
| 20260502004514 | 11 | 17 | 0.0 | 0.0 | 0.03 | 4.01 | 4.01 | 98 | 1014.5 |
| 20260502003010 | 12 | 45 | 0.0 | 6.4 | 0.03 | 4.01 | 4.01 | 98 | 1014.0 |
| 20260502001513 | 12 | 255 | 0.0 | 1.6 | 0.00 | 3.99 | 3.99 | 98 | 1013.5 |
| 20260502000009 | 12 | 48 | 0.0 | 3.2 | 0.00 | 3.99 | 3.99 | 98 | 1013.3 |
| 20260501234508 | 12 | 30 | 0.0 | 8.0 | 0.00 | 3.99 | 3.99 | 98 | 1012.7 |
| 20260501233016 | 12 | 85 | 0.0 | 1.6 | 0.03 | 3.99 | 3.99 | 98 | 1013.2 |
| 20260501231504 | 12 | 252 | 0.0 | 3.2 | 0.05 | 3.99 | 3.99 | 98 | 1012.9 |
| 20260501230005 | 13 | 37 | 0.0 | 1.6 | 0.13 | 3.99 | 3.99 | 98 | 1012.7 |
| 20260501224502 | 13 | 30 | 0.0 | 3.2 | 0.15 | 3.99 | 3.99 | 98 | 1012.3 |
| 20260501223059 | 13 | 24 | 0.0 | 1.6 | 0.20 | 3.96 | 3.96 | 98 | 1012.4 |
| 20260501221559 | 13 | 54 | 0.0 | 3.2 | 0.33 | 3.94 | 3.94 | 98 | 1012.3 |
| 20260501220137 | 13 | 80 | 0.0 | 6.4 | 0.30 | 3.86 | 3.86 | 98 | 1011.8 |
| 20260501214557 | 13 | 42 | 0.0 | 1.6 | 0.33 | 3.84 | 3.84 | 98 | 1012.3 |
| 20260501213102 | 13 | 41 | 0.0 | 1.6 | 0.30 | 3.76 | 3.76 | 98 | 1011.7 |
| 20260501211556 | 13 | 342 | 0.0 | 1.6 | 0.15 | 3.61 | 3.61 | 98 | 1011.5 |
| 20260501210108 | 13 | 49 | 0.0 | 1.6 | 0.10 | 3.56 | 3.56 | 98 | 1011.4 |
| 20260501204555 | 13 | 49 | 0.0 | 0.0 | 0.05 | 3.51 | 3.51 | 98 | 1010.6 |
| 20260501203050 | 13 | 44 | 0.0 | 1.6 | 0.05 | 3.45 | 3.45 | 98 | 1010.1 |
| 20260501201556 | 14 | 41 | 0.0 | 4.8 | 0.13 | 3.45 | 3.45 | 98 | 1010.1 |
| 20260501200050 | 15 | 176 | 0.0 | 1.6 | 0.20 | 3.48 | 3.45 | 98 | 1009.4 |
| 20260501194551 | 14 | 261 | 0.0 | 3.2 | 0.20 | 3.48 | 3.45 | 98 | 1010.4 |
| 20260501193049 | 14 | 28 | 0.0 | 0.0 | 0.15 | 3.43 | 3.40 | 98 | 1010.8 |
| 20260501191556 | 14 | 313 | 0.0 | 0.0 | 0.15 | 3.35 | 3.33 | 98 | 1011.2 |
| 20260501190100 | 14 | 348 | 0.0 | 1.6 | 0.25 | 3.48 | 3.25 | 98 | 1011.7 |
| 20260501184547 | 14 | 42 | 0.0 | 4.8 | 0.56 | 3.48 | 3.25 | 98 | 1009.9 |
| 20260501183146 | 14 | 50 | 0.0 | 4.8 | 0.69 | 3.48 | 3.25 | 98 | 1010.4 |
| 20260501181601 | 14 | 356 | 0.0 | 3.2 | 0.64 | 3.40 | 3.17 | 98 | 1011.3 |
| 20260501180044 | 14 | 53 | 0.0 | 0.0 | 0.46 | 3.20 | 3.00 | 98 | 1013.1 |
| 20260501174543 | 14 | 292 | 0.0 | 1.6 | 0.18 | 2.90 | 2.69 | 98 | 1011.9 |
| 20260501173046 | 14 | 103 | 0.0 | 1.6 | 0.05 | 2.79 | 2.57 | 98 | 1010.1 |
| 20260501171541 | 14 | 1 | 0.0 | 1.6 | 0.03 | 2.77 | 2.54 | 98 | 1010.7 |
| 20260501170048 | 15 | 20 | 0.0 | 3.2 | 0.00 | 2.74 | 2.51 | 98 | 1011.0 |
| 20260501164545 | 15 | 62 | 0.0 | 4.8 | 0.00 | 2.74 | 2.51 | 98 | 1010.5 |
| 20260501163045 | 15 | 40 | 0.0 | 1.6 | 0.08 | 2.74 | 2.51 | 98 | 1010.9 |
| 20260501161541 | 15 | 276 | 0.0 | 0.0 | 0.13 | 2.74 | 2.51 | 98 | 1011.0 |
| 20260501160052 | 14 | 229 | 0.0 | 1.6 | 0.13 | 2.74 | 2.51 | 98 | 1010.2 |
| 20260501154537 | 14 | 219 | 0.0 | 3.2 | 0.15 | 2.74 | 2.51 | 98 | 1009.1 |
| 20260501153035 | 14 | 55 | 0.0 | 1.6 | 0.08 | 2.67 | 2.44 | 98 | 1012.0 |
| 20260501151533 | 14 | 60 | 0.0 | 0.0 | 0.05 | 2.62 | 2.39 | 98 | 1011.7 |
| 20260501150045 | 15 | 255 | 0.0 | 1.6 | 0.15 | 2.62 | 2.39 | 98 | 1012.0 |
| 20260501144536 | 15 | 214 | 0.0 | 0.0 | 0.25 | 2.59 | 2.36 | 98 | 1012.4 |
| 20260501143058 | 14 | 47 | 0.0 | 0.0 | 0.30 | 2.59 | 2.36 | 98 | 1011.9 |